Hourly Weather Roundup
Issued by NWS Central Illinois

Home | Current Version | Previous Version | Text Only | Print | Product List | Glossary On
Versions: 1 2 3 4 5 6 7 8 9 10 11 12 13 14 15 16 17 18 19 20 21 22 23 24 25 26 27 28 29 30 31 32 33 34 35 36 37 38 39 40 41 42 43 44 45 46 47 48 49 50
000
NZUS43 KILX 260710
HWRILX

AREA WEATHER ROUNDUP
NATIONAL WEATHER SERVICE, LINCOLN IL
200 AM CDT THU MAY 26 2016


CITY           SKY/WX    TMP DP  RH WIND       PRES   REMARKS
BLOOMINGTON    CLEAR     68  68 100 S12       29.96S
CHAMPAIGN      CLOUDY    71  67  87 S10       29.98S
DANVILLE       CLOUDY    70  66  86 S9        29.97R
DECATUR        CLEAR     70  66  87 SW12      29.96S
EFFINGHAM      CLEAR     67  67 100 S3        30.01S
FLORA          MOCLDY    68  66  91 S6        30.01S
GALESBURG      CLOUDY    68  64  85 S6        29.91S
JACKSONVILLE   CLEAR     71  64  78 S9        29.94R
LACON          CLEAR     68  65  88 SE5       29.91F
LAWRENCEVILLE  PTCLDY    67  65  93 S6        30.02S
LITCHFIELD     CLEAR     67  64  89 S8        29.97S
$$


CITY           SKY/WX    TMP DP  RH WIND       PRES   REMARKS
LINCOLN        CLEAR     70  67  88 S3        29.94S
MACOMB         CLEAR     71  64  79 SW9       29.94S
MATTOON        MOCLDY    68  65  90 S10       29.97S
MT CARMEL AP   MOCLDY    68  64  89 SW5       30.02S
OLNEY-NOBLE AP MOCLDY    66  64  94 SW3       30.02R
PARIS          CLOUDY    69  66  89 S5        30.01R
PEORIA         CLEAR     69  65  86 S7        29.92F
PONTIAC        CLEAR     72  68  88 S10       29.95S
RANTOUL        CLOUDY    70  67  89 S7        29.97S
ROBINSON       CLEAR     65  64  97 S5        30.02S
SPRINGFIELD    CLEAR     71  66  84 S10       29.95S
TAYLORVILLE    CLEAR     69  66  91 S9        29.96S
$$

...REGIONAL REPORTS...


CITY           SKY/WX    TMP DP  RH WIND       PRES   REMARKS
CHICAGO O`HARE MOCLDY    63  61  93 SE3       29.92F
KANKAKEE       CLEAR    N/A N/A N/A S9G16     29.95F
MOLINE         MOCLDY    75  63  66 S9        29.88S
MOUNT STERLING CLEAR     68  64  85 S6        29.93R
MOUNT VERNON   CLOUDY    66  63  88 S7        30.01F
PITTSFIELD     CLEAR     71  65  83 S7        29.94R
QUINCY         PTCLDY    71  64  78 S8        29.92R
ROCKFORD       PTCLDY    66  63  90 SE3       29.92F
$$


CITY           SKY/WX    TMP DP  RH WIND       PRES   REMARKS
BURLINGTON     MOCLDY    70  65  84 S6        29.90S
CEDAR RAPIDS   CLOUDY    69  63  81 S6        29.85F
DES MOINES     CLOUDY    73  64  73 SE6       29.80F THUNDER
KIRKSVILLE     CLOUDY    71  65  81 S8        29.88F
OTTUMWA        CLOUDY    72  63  73 S9        29.84F
ST LOUIS       MOCLDY    73  66  78 S8        29.96F
$$


CITY           SKY/WX    TMP DP  RH WIND       PRES   REMARKS
TERRE HAUTE    CLOUDY    69  64  84 S7        30.01S
EVANSVILLE     CLOUDY    67  63  87 SW7       30.04S
INDIANAPOLIS   CLOUDY    69  63  81 S8        30.01S
LAFAYETTE      CLOUDY    70  64  81 SW8       29.98S
MADISON        CLEAR     67  63  87 S9        29.87F
MILWAUKEE      CLEAR     64  62  93 S8        29.90S
$$






USA.gov is the U.S. government's official web portal to all federal, state and local government web resources and services.